GFSMA_prec_precacc6_126.txt.gz
Total_Precipitation_Accumulation
0.04 0.03 0.04 0.02 0.00 0.00 0.01 0.00 0.01 0.02 0.01 0.02 0.03 0.01 0.02 0.04 0.04 0.11 0.17 0.05 0.00 0.06 0.04 0.11 0.19 0.12 0.06 0.00 0.00 0.00 0.00 0.00 0.00 0.00 0.00 0.00 0.00 0.01 0.00 0.00 0.00 0.00 0.00
0.02 0.03 0.02 0.02 0.00 0.01 0.00 0.00 0.01 0.00 0.01 0.01 0.01 0.00 0.00 0.02 0.02 0.06 0.12 0.03 0.00 0.01 0.12 0.15 0.18 0.18 0.03 0.01 0.00 0.00 0.00 0.01 0.01 0.01 0.00 0.00 0.00 0.00 0.00 0.00 0.00 0.00 0.00
0.01 0.01 0.01 0.01 0.00 0.00 0.01 0.02 0.03 0.01 0.01 0.01 0.01 0.00 0.00 0.01 0.01 0.03 0.08 0.10 0.02 0.00 0.03 0.07 0.13 0.26 0.09 0.00 0.00 0.00 0.00 0.00 0.01 0.01 0.00 0.00 0.00 0.00 0.00 0.00 0.00 0.00 0.00
0.00 0.01 0.01 0.00 0.01 0.01 0.00 0.02 0.02 0.02 0.01 0.01 0.01 0.00 0.00 0.00 0.00 0.01 0.04 0.08 0.09 0.04 0.00 0.00 0.05 0.12 0.10 0.02 0.00 0.00 0.00 0.00 0.01 0.01 0.01 0.00 0.01 0.00 0.00 0.00 0.00 0.00 0.00
0.00 0.00 0.01 0.00 0.01 0.00 0.00 0.01 0.02 0.03 0.01 0.00 0.00 0.00 0.00 0.00 0.00 0.00 0.01 0.07 0.12 0.14 0.10 0.02 0.00 0.02 0.03 0.04 0.02 0.00 0.00 0.00 0.00 0.00 0.00 0.00 0.01 0.00 0.00 0.00 0.00 0.00 0.00
0.00 0.00 0.00 0.00 0.01 0.01 0.00 0.01 0.01 0.01 0.01 0.01 0.00 0.00 0.00 0.00 0.00 0.00 0.00 0.02 0.06 0.11 0.18 0.13 0.01 0.00 0.00 0.00 0.02 0.01 0.00 0.00 0.00 0.00 0.00 0.00 0.01 0.01 0.00 0.00 0.00 0.00 0.00
0.00 0.00 0.00 0.00 0.00 0.01 0.00 0.00 0.01 0.01 0.01 0.01 0.01 0.01 0.01 0.00 0.01 0.01 0.00 0.01 0.01 0.04 0.10 0.17 0.07 0.03 0.01 0.01 0.01 0.03 0.01 0.01 0.00 0.00 0.01 0.01 0.01 0.01 0.00 0.00 0.00 0.00 0.00
0.00 0.00 0.00 0.00 0.00 0.00 0.00 0.00 0.00 0.01 0.01 0.01 0.01 0.01 0.02 0.01 0.00 0.00 0.00 0.00 0.01 0.02 0.03 0.06 0.10 0.04 0.01 0.01 0.01 0.02 0.02 0.02 0.02 0.01 0.01 0.00 0.00 0.00 0.00 0.00 0.00 0.00 0.00
0.00 0.00 0.00 0.00 0.00 0.00 0.00 0.00 0.00 0.00 0.00 0.01 0.01 0.00 0.00 0.00 0.00 0.00 0.00 0.00 0.01 0.03 0.04 0.06 0.05 0.04 0.02 0.01 0.00 0.00 0.00 0.00 0.01 0.01 0.00 0.00 0.00 0.00 0.00 0.00 0.00 0.01 0.01
0.00 0.00 0.00 0.00 0.00 0.00 0.00 0.00 0.00 0.00 0.00 0.00 0.00 0.00 0.00 0.00 0.00 0.00 0.00 0.00 0.00 0.00 0.02 0.04 0.04 0.04 0.02 0.02 0.00 0.00 0.00 0.00 0.00 0.01 0.01 0.00 0.00 0.00 0.00 0.00 0.00 0.00 0.01
0.00 0.00 0.00 0.01 0.00 0.00 0.00 0.00 0.00 0.00 0.00 0.00 0.00 0.00 0.00 0.00 0.00 0.00 0.00 0.00 0.00 0.00 0.01 0.04 0.03 0.05 0.04 0.03 0.01 0.00 0.01 0.00 0.00 0.00 0.01 0.02 0.01 0.00 0.00 0.00 0.00 0.00 0.01
0.00 0.00 0.00 0.01 0.00 0.00 0.00 0.00 0.00 0.00 0.00 0.00 0.00 0.00 0.00 0.00 0.00 0.01 0.00 0.00 0.01 0.00 0.00 0.01 0.03 0.03 0.04 0.03 0.01 0.00 0.00 0.00 0.00 0.00 0.00 0.00 0.01 0.01 0.00 0.00 0.00 0.00 0.00
0.01 0.01 0.01 0.01 0.01 0.01 0.00 0.00 0.00 0.00 0.01 0.01 0.01 0.01 0.01 0.01 0.00 0.00 0.00 0.00 0.01 0.01 0.01 0.01 0.01 0.04 0.03 0.03 0.02 0.01 0.00 0.00 0.00 0.00 0.00 0.00 0.00 0.01 0.01 0.00 0.00 0.00 0.00
0.13 0.03 0.04 0.02 0.02 0.02 0.05 0.05 0.03 0.03 0.02 0.02 0.04 0.03 0.03 0.02 0.04 0.03 0.02 0.03 0.02 0.01 0.01 0.01 0.00 0.01 0.01 0.01 0.01 0.03 0.02 0.01 0.01 0.00 0.00 0.00 0.00 0.00 0.00 0.00 0.00 0.01 0.01
0.50 0.16 0.13 0.08 0.07 0.15 0.20 0.18 0.07 0.08 0.07 0.05 0.09 0.12 0.11 0.06 0.12 0.08 0.07 0.06 0.08 0.03 0.01 0.01 0.01 0.00 0.00 0.00 0.01 0.02 0.02 0.00 0.00 0.00 0.00 0.00 0.00 0.00 0.00 0.00 0.00 0.00 0.00
0.96 0.49 0.24 0.21 0.18 0.15 0.20 0.15 0.16 0.16 0.16 0.12 0.16 0.26 0.29 0.28 0.32 0.26 0.16 0.08 0.07 0.09 0.06 0.01 0.02 0.00 0.01 0.02 0.01 0.01 0.00 0.02 0.02 0.02 0.01 0.00 0.00 0.00 0.00 0.00 0.00 0.00 0.00
0.16 0.16 0.16 0.20 0.17 0.11 0.16 0.19 0.20 0.19 0.19 0.19 0.20 0.18 0.26 0.38 0.52 0.31 0.16 0.11 0.08 0.08 0.08 0.01 0.03 0.01 0.00 0.02 0.04 0.05 0.04 0.04 0.02 0.03 0.03 0.03 0.02 0.00 0.00 0.00 0.00 0.00 0.00
0.32 0.16 0.13 0.11 0.09 0.05 0.09 0.10 0.14 0.16 0.14 0.11 0.09 0.16 0.17 0.13 0.07 0.04 0.04 0.04 0.03 0.04 0.07 0.03 0.02 0.01 0.00 0.01 0.04 0.07 0.09 0.12 0.08 0.09 0.05 0.04 0.03 0.02 0.00 0.00 0.00 0.00 0.00
0.17 0.12 0.14 0.12 0.08 0.07 0.07 0.08 0.06 0.08 0.11 0.10 0.08 0.07 0.07 0.07 0.05 0.03 0.05 0.04 0.04 0.05 0.07 0.07 0.03 0.01 0.00 0.00 0.02 0.05 0.06 0.12 0.15 0.16 0.09 0.08 0.09 0.08 0.04 0.01 0.00 0.00 0.00
0.08 0.06 0.04 0.06 0.07 0.07 0.07 0.06 0.06 0.06 0.08 0.09 0.08 0.06 0.06 0.09 0.09 0.08 0.09 0.08 0.08 0.08 0.07 0.07 0.06 0.04 0.02 0.01 0.02 0.04 0.07 0.16 0.16 0.11 0.11 0.10 0.07 0.07 0.07 0.03 0.01 0.00 0.00
0.05 0.03 0.03 0.02 0.02 0.03 0.04 0.03 0.02 0.03 0.04 0.06 0.07 0.09 0.12 0.21 0.27 0.27 0.26 0.24 0.24 0.24 0.22 0.19 0.14 0.09 0.04 0.01 0.01 0.02 0.04 0.07 0.12 0.14 0.16 0.20 0.18 0.13 0.09 0.07 0.05 0.02 0.01
0.02 0.01 0.00 0.00 0.00 0.00 0.02 0.01 0.02 0.03 0.04 0.04 0.05 0.07 0.13 0.22 0.25 0.40 0.42 0.39 0.37 0.36 0.27 0.11 0.05 0.03 0.01 0.00 0.00 0.02 0.09 0.13 0.12 0.10 0.13 0.17 0.19 0.18 0.14 0.11 0.12 0.11 0.08
0.00 0.00 0.00 0.00 0.00 0.00 0.01 0.01 0.01 0.01 0.02 0.04 0.06 0.06 0.07 0.10 0.12 0.07 0.10 0.08 0.08 0.08 0.06 0.03 0.01 0.01 0.01 0.00 0.00 0.01 0.02 0.03 0.02 0.05 0.15 0.27 0.26 0.24 0.19 0.14 0.13 0.11 0.11
0.00 0.00 0.00 0.00 0.00 0.00 0.00 0.00 0.00 0.00 0.00 0.01 0.02 0.04 0.06 0.07 0.11 0.10 0.08 0.10 0.10 0.07 0.07 0.07 0.04 0.04 0.04 0.03 0.01 0.02 0.03 0.08 0.09 0.09 0.12 0.17 0.16 0.22 0.19 0.14 0.17 0.08 0.07
0.00 0.00 0.00 0.00 0.00 0.00 0.00 0.00 0.00 0.00 0.00 0.00 0.00 0.02 0.05 0.06 0.16 0.14 0.07 0.09 0.14 0.15 0.16 0.14 0.12 0.14 0.15 0.11 0.08 0.07 0.12 0.15 0.11 0.06 0.04 0.06 0.08 0.11 0.14 0.16 0.15 0.17 0.11
0.00 0.01 0.01 0.00 0.00 0.00 0.00 0.00 0.00 0.01 0.02 0.02 0.02 0.03 0.10 0.09 0.14 0.16 0.16 0.24 0.25 0.25 0.25 0.23 0.20 0.16 0.13 0.13 0.20 0.18 0.20 0.22 0.16 0.11 0.07 0.08 0.11 0.14 0.19 0.15 0.09 0.10 0.09

GFSMA_prec_precacc6_132.txt.gz
Total_Precipitation_Accumulation
0.00 0.00 0.00 0.00 0.00 0.00 0.00 0.00 0.00 0.00 0.00 0.00 0.01 0.00 0.00 0.00 0.01 0.00 0.00 0.00 0.00 0.04 0.06 0.05 0.01 0.03 0.01 0.01 0.01 0.01 0.00 0.00 0.00 0.00 0.00 0.00 0.01 0.01 0.00 0.01 0.01 0.01 0.01
0.00 0.00 0.00 0.00 0.00 0.00 0.00 0.00 0.00 0.00 0.00 0.00 0.02 0.05 0.00 0.00 0.01 0.01 0.00 0.00 0.00 0.00 0.02 0.05 0.00 0.00 0.01 0.01 0.01 0.00 0.00 0.00 0.00 0.00 0.00 0.00 0.00 0.00 0.00 0.01 0.01 0.00 0.00
0.00 0.00 0.00 0.00 0.00 0.00 0.00 0.00 0.00 0.00 0.00 0.00 0.01 0.06 0.01 0.00 0.01 0.01 0.01 0.00 0.00 0.00 0.00 0.02 0.01 0.00 0.00 0.00 0.02 0.01 0.00 0.00 0.00 0.00 0.00 0.00 0.00 0.00 0.00 0.01 0.00 0.00 0.00
0.00 0.00 0.00 0.00 0.00 0.00 0.00 0.00 0.00 0.00 0.00 0.01 0.01 0.02 0.01 0.00 0.00 0.01 0.01 0.00 0.00 0.00 0.00 0.00 0.01 0.02 0.00 0.02 0.01 0.01 0.01 0.01 0.00 0.00 0.00 0.00 0.00 0.00 0.00 0.00 0.00 0.00 0.00
0.04 0.00 0.00 0.00 0.00 0.00 0.00 0.00 0.00 0.00 0.01 0.01 0.01 0.05 0.04 0.01 0.01 0.01 0.01 0.01 0.00 0.00 0.00 0.00 0.00 0.00 0.01 0.01 0.05 0.05 0.04 0.01 0.01 0.00 0.00 0.00 0.00 0.00 0.00 0.00 0.00 0.01 0.01
0.23 0.08 0.01 0.00 0.01 0.01 0.01 0.00 0.00 0.00 0.00 0.00 0.01 0.02 0.04 0.03 0.02 0.01 0.01 0.00 0.01 0.00 0.00 0.00 0.00 0.00 0.00 0.00 0.01 0.04 0.03 0.01 0.00 0.00 0.00 0.00 0.00 0.00 0.01 0.00 0.00 0.01 0.01
0.37 0.21 0.05 0.01 0.02 0.00 0.00 0.00 0.01 0.01 0.01 0.01 0.01 0.01 0.00 0.01 0.02 0.02 0.01 0.01 0.00 0.00 0.00 0.00 0.00 0.00 0.00 0.00 0.00 0.01 0.01 0.01 0.01 0.00 0.00 0.00 0.00 0.00 0.00 0.00 0.00 0.01 0.01
0.35 0.31 0.14 0.04 0.01 0.00 0.00 0.00 0.00 0.00 0.01 0.02 0.01 0.01 0.01 0.00 0.00 0.01 0.01 0.00 0.00 0.00 0.00 0.00 0.00 0.00 0.00 0.00 0.00 0.00 0.01 0.04 0.04 0.02 0.00 0.00 0.00 0.00 0.00 0.00 0.00 0.00 0.01
0.29 0.28 0.26 0.11 0.05 0.02 0.00 0.00 0.00 0.00 0.00 0.01 0.00 0.00 0.00 0.00 0.00 0.00 0.00 0.00 0.00 0.00 0.00 0.00 0.00 0.00 0.00 0.00 0.00 0.00 0.00 0.00 0.03 0.07 0.04 0.01 0.01 0.01 0.01 0.00 0.00 0.00 0.00
0.29 0.26 0.22 0.17 0.07 0.02 0.00 0.00 0.00 0.00 0.00 0.00 0.00 0.00 0.00 0.00 0.00 0.00 0.00 0.00 0.00 0.00 0.00 0.00 0.00 0.00 0.00 0.00 0.00 0.00 0.00 0.00 0.00 0.02 0.07 0.07 0.03 0.00 0.00 0.00 0.00 0.00 0.00
0.28 0.32 0.37 0.19 0.08 0.04 0.01 0.00 0.00 0.00 0.00 0.00 0.00 0.00 0.00 0.00 0.00 0.00 0.00 0.00 0.00 0.00 0.00 0.00 0.00 0.00 0.00 0.00 0.00 0.00 0.00 0.00 0.00 0.00 0.01 0.06 0.06 0.02 0.00 0.00 0.00 0.00 0.00
0.25 0.37 0.48 0.63 0.30 0.05 0.01 0.00 0.00 0.00 0.00 0.00 0.00 0.00 0.00 0.00 0.00 0.02 0.01 0.01 0.00 0.00 0.00 0.00 0.00 0.00 0.00 0.00 0.00 0.00 0.00 0.00 0.00 0.00 0.00 0.00 0.02 0.02 0.01 0.00 0.00 0.00 0.00
0.33 0.32 0.49 0.78 0.48 0.13 0.02 0.02 0.01 0.00 0.00 0.00 0.00 0.00 0.00 0.00 0.00 0.00 0.01 0.01 0.01 0.00 0.00 0.00 0.00 0.00 0.00 0.00 0.00 0.00 0.00 0.00 0.00 0.00 0.00 0.00 0.00 0.00 0.00 0.00 0.00 0.00 0.00
0.57 0.56 0.60 0.62 0.69 0.34 0.05 0.02 0.01 0.01 0.01 0.01 0.01 0.01 0.01 0.00 0.01 0.03 0.02 0.04 0.02 0.01 0.01 0.01 0.01 0.00 0.01 0.01 0.00 0.00 0.00 0.00 0.00 0.00 0.00 0.00 0.00 0.00 0.00 0.00 0.00 0.00 0.00
1.10 1.08 0.95 0.76 0.57 0.45 0.13 0.08 0.05 0.06 0.05 0.03 0.01 0.02 0.00 0.01 0.01 0.05 0.11 0.16 0.12 0.09 0.10 0.12 0.07 0.06 0.05 0.03 0.01 0.01 0.00 0.00 0.00 0.00 0.00 0.00 0.00 0.00 0.00 0.01 0.01 0.00 0.00
1.74 1.68 1.42 1.22 1.13 0.94 0.43 0.11 0.08 0.07 0.07 0.06 0.05 0.08 0.07 0.06 0.10 0.26 0.40 0.47 0.51 0.59 0.52 0.26 0.22 0.16 0.13 0.07 0.05 0.05 0.02 0.01 0.00 0.00 0.00 0.00 0.01 0.01 0.01 0.01 0.01 0.02 0.01
1.32 2.12 2.27 1.79 1.69 1.18 0.64 0.37 0.23 0.12 0.07 0.07 0.06 0.07 0.09 0.13 0.15 0.29 0.41 0.55 0.52 0.42 0.32 0.15 0.18 0.18 0.13 0.09 0.07 0.09 0.07 0.04 0.01 0.00 0.00 0.00 0.00 0.01 0.01 0.01 0.00 0.01 0.01
0.85 1.07 1.62 2.10 1.73 1.58 0.91 0.47 0.32 0.30 0.33 0.31 0.22 0.23 0.21 0.22 0.22 0.21 0.23 0.24 0.33 0.27 0.09 0.04 0.05 0.09 0.09 0.07 0.05 0.04 0.03 0.02 0.01 0.00 0.00 0.01 0.02 0.03 0.04 0.05 0.04 0.03 0.02
0.34 0.62 0.93 1.21 1.34 1.64 1.35 0.69 0.45 0.30 0.32 0.43 0.39 0.31 0.23 0.26 0.25 0.17 0.15 0.14 0.17 0.17 0.09 0.06 0.02 0.04 0.01 0.01 0.01 0.01 0.02 0.03 0.02 0.01 0.00 0.01 0.01 0.04 0.08 0.10 0.11 0.10 0.10
0.41 0.40 0.51 0.80 1.01 0.88 0.91 0.95 0.97 0.70 0.26 0.22 0.34 0.44 0.31 0.17 0.18 0.14 0.14 0.09 0.09 0.11 0.11 0.10 0.08 0.07 0.04 0.03 0.05 0.07 0.06 0.04 0.02 0.01 0.01 0.00 0.01 0.01 0.05 0.09 0.11 0.12 0.11
0.32 0.39 0.41 0.46 0.61 0.80 0.71 0.62 0.66 0.62 0.36 0.26 0.20 0.16 0.19 0.12 0.12 0.08 0.08 0.06 0.06 0.08 0.10 0.11 0.13 0.13 0.10 0.05 0.03 0.04 0.04 0.03 0.02 0.01 0.00 0.00 0.01 0.01 0.02 0.04 0.06 0.08 0.09
0.14 0.20 0.27 0.30 0.30 0.32 0.46 0.54 0.50 0.45 0.37 0.30 0.23 0.13 0.11 0.12 0.10 0.13 0.12 0.10 0.06 0.06 0.13 0.25 0.22 0.20 0.18 0.17 0.15 0.11 0.08 0.07 0.05 0.01 0.00 0.01 0.01 0.01 0.01 0.01 0.05 0.05 0.07
0.13 0.13 0.16 0.16 0.13 0.14 0.12 0.15 0.22 0.19 0.15 0.13 0.09 0.10 0.08 0.03 0.03 0.03 0.02 0.03 0.03 0.05 0.06 0.07 0.09 0.12 0.11 0.12 0.10 0.09 0.10 0.12 0.07 0.02 0.01 0.01 0.01 0.02 0.03 0.08 0.13 0.07 0.06
0.00 0.00 0.00 0.00 0.00 0.01 0.01 0.00 0.00 0.00 0.00 0.00 0.00 0.00 0.00 0.00 0.00 0.00 0.00 0.00 0.02 0.06 0.07 0.06 0.05 0.07 0.09 0.10 0.09 0.08 0.06 0.04 0.03 0.04 0.04 0.03 0.02 0.02 0.05 0.08 0.14 0.09 0.08
0.00 0.00 0.00 0.00 0.00 0.00 0.00 0.00 0.00 0.00 0.00 0.00 0.00 0.00 0.00 0.00 0.00 0.00 0.00 0.00 0.01 0.02 0.05 0.07 0.06 0.07 0.08 0.06 0.05 0.06 0.08 0.11 0.08 0.04 0.05 0.05 0.03 0.03 0.04 0.06 0.09 0.16 0.14
0.00 0.00 0.00 0.00 0.00 0.00 0.00 0.00 0.00 0.00 0.00 0.00 0.00 0.00 0.00 0.00 0.00 0.00 0.00 0.00 0.00 0.00 0.00 0.01 0.02 0.02 0.02 0.03 0.05 0.05 0.06 0.11 0.15 0.12 0.12 0.16 0.10 0.07 0.08 0.07 0.05 0.05 0.05

GFSMA_prec_precacc6_135.txt.gz
Total_Precipitation_Accumulation
0.00 0.00 0.00 0.00 0.00 0.00 0.00 0.00 0.00 0.00 0.00 0.00 0.01 0.00 0.00 0.00 0.00 0.00 0.00 0.00 0.00 0.04 0.11 0.14 0.11 0.15 0.11 0.08 0.07 0.02 0.01 0.00 0.00 0.00 0.00 0.00 0.01 0.01 0.00 0.01 0.02 0.02 0.01
0.04 0.00 0.00 0.00 0.00 0.00 0.00 0.00 0.00 0.00 0.00 0.00 0.03 0.04 0.00 0.00 0.01 0.00 0.00 0.00 0.00 0.00 0.05 0.09 0.09 0.07 0.05 0.09 0.10 0.04 0.01 0.00 0.00 0.00 0.00 0.00 0.00 0.00 0.00 0.00 0.01 0.01 0.01
0.17 0.08 0.01 0.00 0.00 0.00 0.00 0.00 0.00 0.00 0.00 0.00 0.02 0.11 0.07 0.01 0.00 0.00 0.00 0.00 0.00 0.00 0.00 0.04 0.04 0.01 0.04 0.12 0.10 0.06 0.03 0.01 0.00 0.00 0.00 0.00 0.00 0.00 0.00 0.01 0.01 0.01 0.01
0.21 0.19 0.09 0.00 0.00 0.00 0.00 0.00 0.00 0.00 0.00 0.00 0.01 0.04 0.04 0.05 0.02 0.00 0.01 0.00 0.00 0.00 0.00 0.00 0.02 0.03 0.01 0.06 0.10 0.06 0.03 0.03 0.01 0.00 0.00 0.00 0.00 0.00 0.00 0.01 0.01 0.01 0.01
0.26 0.22 0.18 0.05 0.02 0.02 0.01 0.01 0.00 0.00 0.00 0.01 0.02 0.07 0.07 0.03 0.01 0.00 0.01 0.00 0.00 0.00 0.00 0.00 0.00 0.01 0.04 0.04 0.13 0.15 0.07 0.03 0.02 0.02 0.00 0.00 0.00 0.00 0.00 0.01 0.01 0.01 0.01
0.34 0.31 0.24 0.18 0.08 0.05 0.04 0.03 0.04 0.01 0.00 0.00 0.02 0.07 0.08 0.06 0.04 0.01 0.01 0.01 0.00 0.00 0.00 0.00 0.00 0.00 0.01 0.05 0.10 0.15 0.15 0.14 0.02 0.00 0.01 0.00 0.00 0.00 0.00 0.00 0.01 0.01 0.01
0.39 0.39 0.36 0.28 0.15 0.05 0.02 0.05 0.07 0.04 0.01 0.02 0.06 0.05 0.03 0.05 0.06 0.04 0.02 0.01 0.00 0.00 0.00 0.00 0.00 0.00 0.00 0.00 0.00 0.06 0.06 0.11 0.10 0.03 0.01 0.00 0.00 0.00 0.00 0.00 0.00 0.01 0.01
0.38 0.40 0.37 0.34 0.22 0.07 0.07 0.08 0.04 0.02 0.02 0.04 0.02 0.03 0.03 0.02 0.01 0.03 0.02 0.01 0.00 0.00 0.00 0.00 0.00 0.00 0.00 0.00 0.00 0.00 0.03 0.07 0.10 0.06 0.02 0.00 0.00 0.00 0.00 0.00 0.00 0.00 0.01
0.30 0.33 0.39 0.36 0.43 0.32 0.09 0.05 0.04 0.04 0.02 0.03 0.01 0.01 0.00 0.01 0.00 0.00 0.00 0.00 0.00 0.00 0.00 0.00 0.00 0.00 0.00 0.00 0.00 0.00 0.00 0.00 0.04 0.10 0.08 0.03 0.00 0.01 0.01 0.00 0.00 0.00 0.00
0.23 0.28 0.29 0.51 0.50 0.54 0.18 0.07 0.07 0.06 0.05 0.03 0.03 0.01 0.00 0.00 0.00 0.00 0.00 0.00 0.00 0.00 0.00 0.00 0.00 0.00 0.00 0.00 0.00 0.00 0.00 0.00 0.00 0.02 0.08 0.09 0.06 0.00 0.00 0.00 0.00 0.00 0.00
0.15 0.31 0.39 0.29 0.65 0.93 0.63 0.18 0.11 0.08 0.04 0.03 0.01 0.00 0.00 0.00 0.00 0.00 0.00 0.00 0.00 0.00 0.00 0.00 0.00 0.00 0.00 0.00 0.00 0.00 0.00 0.00 0.00 0.00 0.01 0.05 0.09 0.05 0.00 0.00 0.00 0.00 0.00
0.09 0.33 0.49 0.69 0.59 0.67 0.87 0.38 0.16 0.12 0.07 0.06 0.03 0.01 0.00 0.00 0.00 0.00 0.00 0.00 0.00 0.00 0.00 0.00 0.00 0.00 0.00 0.00 0.00 0.00 0.00 0.00 0.00 0.00 0.00 0.00 0.02 0.04 0.02 0.01 0.00 0.00 0.00
0.05 0.23 0.48 0.81 0.94 0.74 0.80 0.78 0.39 0.16 0.10 0.06 0.02 0.01 0.00 0.00 0.00 0.00 0.00 0.00 0.00 0.00 0.00 0.00 0.00 0.00 0.00 0.00 0.00 0.00 0.00 0.00 0.00 0.00 0.00 0.00 0.00 0.00 0.01 0.01 0.01 0.00 0.00
0.03 0.30 0.53 0.57 0.74 0.60 0.65 0.67 0.60 0.24 0.11 0.06 0.05 0.05 0.01 0.01 0.00 0.01 0.01 0.01 0.00 0.01 0.01 0.01 0.01 0.00 0.01 0.01 0.00 0.00 0.00 0.00 0.00 0.00 0.00 0.00 0.00 0.00 0.00 0.00 0.00 0.00 0.00
0.02 0.21 0.70 0.64 0.57 0.54 0.55 0.58 0.54 0.45 0.14 0.06 0.03 0.04 0.03 0.04 0.02 0.03 0.01 0.01 0.03 0.04 0.07 0.09 0.06 0.07 0.07 0.05 0.02 0.02 0.00 0.00 0.00 0.00 0.00 0.00 0.00 0.00 0.00 0.00 0.00 0.00 0.00
0.03 0.19 0.96 0.98 0.92 0.89 0.65 0.48 0.47 0.54 0.29 0.14 0.10 0.06 0.04 0.03 0.03 0.03 0.02 0.03 0.07 0.14 0.22 0.19 0.16 0.13 0.12 0.07 0.05 0.07 0.05 0.05 0.04 0.03 0.01 0.00 0.00 0.00 0.00 0.01 0.01 0.02 0.03
0.05 0.32 1.25 1.34 1.38 0.94 0.74 0.69 0.49 0.31 0.22 0.14 0.13 0.09 0.07 0.06 0.09 0.14 0.15 0.18 0.14 0.09 0.09 0.08 0.09 0.12 0.11 0.10 0.08 0.10 0.10 0.07 0.05 0.04 0.02 0.00 0.00 0.00 0.00 0.01 0.01 0.01 0.02
0.14 0.31 0.98 1.25 0.91 1.26 1.01 0.80 0.76 0.73 0.56 0.36 0.19 0.16 0.15 0.09 0.11 0.16 0.28 0.43 0.50 0.41 0.25 0.18 0.11 0.08 0.06 0.06 0.05 0.04 0.03 0.03 0.02 0.01 0.03 0.03 0.02 0.01 0.01 0.01 0.02 0.03 0.03
0.08 0.16 0.57 0.88 0.89 1.42 1.41 1.14 0.97 0.76 0.71 0.60 0.44 0.27 0.20 0.17 0.18 0.17 0.16 0.20 0.26 0.32 0.26 0.15 0.08 0.08 0.03 0.01 0.01 0.02 0.02 0.03 0.02 0.02 0.03 0.03 0.02 0.01 0.01 0.01 0.02 0.04 0.08
0.24 0.18 0.22 0.48 0.81 0.99 1.30 1.44 1.52 1.25 0.96 0.71 0.52 0.52 0.43 0.33 0.30 0.31 0.25 0.25 0.23 0.23 0.17 0.14 0.09 0.08 0.05 0.04 0.04 0.03 0.06 0.04 0.02 0.03 0.03 0.03 0.02 0.01 0.01 0.00 0.00 0.03 0.07
0.45 0.30 0.32 0.35 0.49 0.80 0.95 1.01 1.13 1.31 1.33 1.28 0.84 0.49 0.49 0.53 0.50 0.40 0.50 0.51 0.30 0.14 0.16 0.20 0.18 0.10 0.07 0.06 0.04 0.04 0.04 0.03 0.02 0.02 0.02 0.02 0.02 0.01 0.01 0.00 0.00 0.01 0.03
0.13 0.13 0.20 0.26 0.29 0.39 0.63 0.82 0.99 0.98 0.89 0.89 0.88 0.77 0.62 0.52 0.41 0.41 0.36 0.33 0.30 0.16 0.11 0.12 0.13 0.11 0.07 0.09 0.13 0.12 0.10 0.10 0.08 0.03 0.01 0.01 0.00 0.00 0.00 0.00 0.02 0.01 0.01
0.10 0.11 0.14 0.16 0.17 0.23 0.21 0.28 0.49 0.64 0.68 0.66 0.59 0.52 0.48 0.41 0.31 0.26 0.25 0.24 0.22 0.18 0.12 0.07 0.06 0.06 0.03 0.05 0.08 0.08 0.11 0.13 0.11 0.06 0.05 0.03 0.01 0.00 0.00 0.01 0.02 0.01 0.01
0.00 0.00 0.01 0.01 0.02 0.02 0.02 0.02 0.02 0.04 0.06 0.06 0.05 0.05 0.07 0.10 0.12 0.12 0.10 0.06 0.06 0.06 0.06 0.04 0.02 0.02 0.01 0.04 0.05 0.06 0.06 0.05 0.04 0.05 0.10 0.06 0.01 0.01 0.01 0.01 0.02 0.01 0.00
0.00 0.00 0.00 0.00 0.01 0.01 0.00 0.00 0.00 0.00 0.00 0.00 0.00 0.00 0.00 0.00 0.00 0.00 0.00 0.00 0.00 0.00 0.00 0.00 0.00 0.01 0.02 0.02 0.03 0.03 0.04 0.04 0.03 0.02 0.06 0.09 0.04 0.02 0.02 0.02 0.02 0.03 0.01
0.00 0.00 0.00 0.00 0.00 0.00 0.00 0.00 0.00 0.00 0.00 0.00 0.00 0.00 0.00 0.00 0.00 0.00 0.00 0.00 0.00 0.00 0.00 0.00 0.00 0.00 0.00 0.00 0.01 0.00 0.01 0.01 0.02 0.02 0.04 0.07 0.05 0.04 0.04 0.03 0.02 0.02 0.01

GFSMA_prec_precacc6_141.txt.gz
Total_Precipitation_Accumulation
0.05 0.07 0.06 0.10 0.09 0.05 0.02 0.01 0.01 0.01 0.00 0.00 0.00 0.00 0.00 0.00 0.00 0.00 0.00 0.00 0.00 0.00 0.04 0.07 0.09 0.20 0.26 0.18 0.13 0.14 0.16 0.11 0.02 0.00 0.00 0.00 0.00 0.00 0.00 0.00 0.02 0.03 0.03
0.09 0.16 0.13 0.12 0.12 0.08 0.05 0.02 0.01 0.01 0.01 0.00 0.00 0.00 0.00 0.00 0.00 0.00 0.00 0.00 0.00 0.00 0.01 0.05 0.12 0.15 0.21 0.22 0.17 0.14 0.12 0.09 0.05 0.03 0.01 0.00 0.00 0.00 0.00 0.00 0.01 0.02 0.02
0.03 0.12 0.20 0.17 0.12 0.08 0.07 0.06 0.04 0.02 0.01 0.01 0.00 0.00 0.00 0.00 0.00 0.00 0.00 0.00 0.00 0.00 0.00 0.01 0.03 0.08 0.10 0.12 0.07 0.11 0.13 0.08 0.09 0.07 0.03 0.00 0.00 0.00 0.00 0.00 0.00 0.01 0.01
0.01 0.02 0.13 0.19 0.15 0.11 0.08 0.08 0.08 0.04 0.02 0.01 0.01 0.00 0.00 0.00 0.00 0.00 0.00 0.00 0.00 0.00 0.00 0.00 0.00 0.01 0.03 0.07 0.05 0.03 0.08 0.05 0.04 0.04 0.03 0.00 0.00 0.00 0.00 0.00 0.00 0.00 0.01
0.00 0.00 0.03 0.11 0.18 0.18 0.12 0.13 0.16 0.10 0.04 0.02 0.01 0.00 0.00 0.00 0.01 0.00 0.00 0.00 0.00 0.00 0.00 0.00 0.00 0.00 0.00 0.02 0.05 0.05 0.04 0.02 0.01 0.01 0.01 0.00 0.00 0.00 0.00 0.00 0.00 0.00 0.00
0.00 0.00 0.03 0.12 0.18 0.13 0.16 0.31 0.27 0.18 0.07 0.02 0.05 0.03 0.01 0.02 0.03 0.01 0.00 0.00 0.00 0.00 0.00 0.00 0.00 0.00 0.00 0.00 0.06 0.11 0.08 0.04 0.01 0.00 0.01 0.00 0.00 0.00 0.00 0.00 0.00 0.00 0.00
0.00 0.00 0.01 0.10 0.28 0.39 0.35 0.28 0.32 0.44 0.21 0.11 0.13 0.07 0.05 0.05 0.06 0.04 0.02 0.01 0.00 0.00 0.00 0.00 0.00 0.00 0.00 0.00 0.00 0.06 0.09 0.12 0.10 0.04 0.02 0.00 0.00 0.00 0.00 0.00 0.00 0.00 0.00
0.00 0.00 0.00 0.02 0.19 0.53 0.66 0.69 0.67 0.63 0.29 0.19 0.10 0.04 0.03 0.03 0.02 0.03 0.02 0.02 0.01 0.00 0.00 0.00 0.00 0.00 0.00 0.00 0.00 0.00 0.02 0.06 0.12 0.12 0.07 0.01 0.00 0.00 0.00 0.00 0.00 0.00 0.00
0.00 0.00 0.00 0.01 0.05 0.35 0.70 0.70 0.78 0.80 0.82 0.64 0.18 0.05 0.02 0.02 0.00 0.00 0.00 0.00 0.00 0.00 0.00 0.00 0.00 0.00 0.00 0.00 0.00 0.00 0.00 0.00 0.02 0.09 0.14 0.04 0.00 0.00 0.00 0.00 0.00 0.00 0.00
0.00 0.00 0.00 0.00 0.01 0.19 0.77 0.78 0.68 0.58 0.68 0.62 0.42 0.13 0.04 0.00 0.00 0.00 0.00 0.00 0.00 0.00 0.00 0.00 0.00 0.00 0.00 0.00 0.00 0.00 0.00 0.00 0.00 0.00 0.03 0.06 0.03 0.00 0.00 0.00 0.00 0.00 0.00
0.00 0.00 0.00 0.00 0.00 0.01 0.35 0.82 1.01 0.90 0.65 0.57 0.58 0.25 0.10 0.03 0.00 0.00 0.00 0.00 0.00 0.00 0.00 0.00 0.00 0.00 0.00 0.00 0.00 0.00 0.00 0.00 0.00 0.00 0.00 0.00 0.02 0.03 0.01 0.00 0.00 0.00 0.00
0.00 0.00 0.00 0.00 0.00 0.01 0.06 0.57 0.90 0.85 0.91 0.78 0.73 0.46 0.14 0.06 0.01 0.00 0.00 0.00 0.00 0.00 0.00 0.00 0.00 0.00 0.00 0.00 0.00 0.00 0.00 0.00 0.00 0.00 0.00 0.00 0.01 0.02 0.02 0.01 0.00 0.00 0.00
0.00 0.00 0.01 0.01 0.00 0.00 0.00 0.09 0.44 0.89 0.78 0.72 0.59 0.56 0.31 0.09 0.03 0.02 0.00 0.00 0.00 0.00 0.00 0.00 0.00 0.00 0.00 0.00 0.00 0.00 0.00 0.00 0.00 0.00 0.00 0.00 0.00 0.01 0.01 0.01 0.01 0.01 0.01
0.01 0.01 0.00 0.00 0.00 0.00 0.00 0.01 0.21 0.56 0.75 0.81 0.61 0.59 0.60 0.35 0.15 0.05 0.02 0.00 0.00 0.00 0.00 0.00 0.00 0.00 0.00 0.00 0.00 0.00 0.00 0.00 0.00 0.00 0.00 0.00 0.00 0.00 0.00 0.01 0.01 0.01 0.01
0.03 0.01 0.01 0.01 0.01 0.00 0.00 0.00 0.02 0.20 0.47 0.53 0.55 0.57 0.62 0.60 0.33 0.19 0.09 0.04 0.01 0.00 0.00 0.00 0.00 0.00 0.00 0.00 0.00 0.00 0.00 0.00 0.00 0.00 0.00 0.00 0.00 0.00 0.00 0.00 0.01 0.01 0.01
0.08 0.07 0.07 0.04 0.02 0.00 0.00 0.00 0.00 0.03 0.33 0.39 0.46 0.48 0.58 0.69 0.58 0.34 0.23 0.15 0.09 0.04 0.01 0.00 0.00 0.00 0.01 0.00 0.00 0.00 0.00 0.02 0.02 0.01 0.00 0.00 0.00 0.00 0.00 0.00 0.00 0.00 0.01
0.20 0.08 0.07 0.08 0.05 0.01 0.00 0.00 0.01 0.06 0.22 0.50 0.60 0.53 0.55 0.55 0.65 0.62 0.35 0.23 0.18 0.14 0.06 0.01 0.00 0.00 0.00 0.00 0.00 0.00 0.00 0.01 0.02 0.03 0.03 0.03 0.03 0.02 0.01 0.00 0.00 0.00 0.00
0.11 0.08 0.08 0.07 0.03 0.00 0.00 0.00 0.01 0.03 0.15 0.27 0.39 0.54 0.58 0.49 0.51 0.48 0.36 0.27 0.20 0.17 0.12 0.03 0.02 0.01 0.01 0.00 0.00 0.00 0.00 0.00 0.00 0.00 0.00 0.00 0.02 0.03 0.03 0.03 0.02 0.01 0.01
0.26 0.17 0.13 0.09 0.05 0.04 0.03 0.03 0.02 0.02 0.05 0.12 0.23 0.29 0.37 0.53 0.54 0.48 0.50 0.34 0.23 0.20 0.18 0.12 0.07 0.04 0.04 0.02 0.02 0.02 0.02 0.01 0.00 0.00 0.01 0.00 0.01 0.01 0.01 0.02 0.03 0.03 0.02
0.48 0.40 0.27 0.20 0.13 0.12 0.12 0.10 0.10 0.11 0.10 0.12 0.25 0.28 0.28 0.30 0.48 0.61 0.58 0.54 0.43 0.33 0.28 0.30 0.27 0.13 0.11 0.10 0.11 0.06 0.03 0.01 0.01 0.01 0.01 0.00 0.01 0.02 0.02 0.02 0.03 0.03 0.03
1.00 0.82 0.63 0.30 0.15 0.17 0.25 0.24 0.35 0.26 0.21 0.25 0.35 0.40 0.48 0.49 0.36 0.41 0.44 0.56 0.71 0.77 0.74 0.59 0.56 0.56 0.43 0.24 0.17 0.14 0.08 0.02 0.00 0.00 0.00 0.01 0.01 0.01 0.01 0.02 0.02 0.03 0.03
0.98 0.78 0.90 0.44 0.37 0.22 0.26 0.43 0.45 0.52 0.44 0.35 0.39 0.41 0.40 0.48 0.59 0.55 0.62 0.60 0.53 0.72 0.83 0.75 0.70 0.62 0.61 0.60 0.56 0.39 0.27 0.21 0.18 0.10 0.02 0.00 0.01 0.00 0.00 0.01 0.04 0.02 0.03
0.10 0.16 0.24 0.18 0.11 0.05 0.04 0.12 0.19 0.32 0.47 0.50 0.46 0.41 0.41 0.47 0.52 0.54 0.54 0.51 0.54 0.56 0.55 0.60 0.65 0.66 0.58 0.51 0.44 0.45 0.40 0.35 0.33 0.30 0.17 0.09 0.09 0.06 0.03 0.05 0.10 0.08 0.08
0.01 0.02 0.06 0.07 0.04 0.01 0.00 0.00 0.01 0.02 0.05 0.10 0.12 0.13 0.13 0.15 0.22 0.28 0.34 0.42 0.43 0.46 0.53 0.55 0.51 0.49 0.49 0.46 0.41 0.35 0.29 0.22 0.20 0.22 0.21 0.15 0.11 0.08 0.03 0.02 0.07 0.05 0.04
0.00 0.00 0.00 0.01 0.02 0.01 0.00 0.01 0.00 0.01 0.01 0.02 0.03 0.03 0.03 0.04 0.04 0.03 0.02 0.03 0.05 0.07 0.07 0.08 0.09 0.10 0.09 0.09 0.10 0.13 0.16 0.18 0.19 0.15 0.10 0.07 0.04 0.02 0.02 0.02 0.02 0.05 0.03
0.00 0.00 0.00 0.00 0.00 0.01 0.00 0.00 0.00 0.00 0.00 0.00 0.00 0.01 0.01 0.02 0.02 0.02 0.03 0.03 0.03 0.03 0.02 0.01 0.00 0.00 0.00 0.00 0.01 0.01 0.01 0.01 0.01 0.01 0.01 0.00 0.01 0.00 0.00 0.00 0.00 0.00 0.00

GFSMA_prec_precacc6_144.txt.gz
Total_Precipitation_Accumulation
0.01 0.01 0.01 0.06 0.09 0.09 0.09 0.07 0.07 0.07 0.05 0.03 0.02 0.01 0.00 0.01 0.01 0.00 0.00 0.00 0.00 0.00 0.03 0.08 0.09 0.10 0.16 0.10 0.06 0.08 0.14 0.17 0.11 0.03 0.01 0.00 0.00 0.00 0.00 0.00 0.01 0.02 0.03
0.00 0.01 0.01 0.04 0.08 0.07 0.05 0.07 0.06 0.05 0.08 0.05 0.02 0.01 0.00 0.00 0.00 0.00 0.00 0.00 0.00 0.00 0.00 0.03 0.09 0.14 0.18 0.20 0.15 0.11 0.10 0.09 0.13 0.06 0.01 0.00 0.00 0.00 0.00 0.00 0.01 0.01 0.01
0.00 0.00 0.00 0.01 0.05 0.06 0.07 0.06 0.10 0.11 0.10 0.07 0.03 0.01 0.01 0.00 0.00 0.00 0.00 0.00 0.00 0.00 0.00 0.00 0.01 0.06 0.13 0.11 0.08 0.08 0.07 0.09 0.12 0.10 0.05 0.00 0.00 0.00 0.00 0.00 0.00 0.01 0.02
0.00 0.00 0.00 0.00 0.01 0.04 0.06 0.08 0.10 0.12 0.08 0.04 0.01 0.01 0.03 0.01 0.00 0.00 0.00 0.00 0.00 0.00 0.00 0.00 0.00 0.00 0.02 0.05 0.05 0.03 0.03 0.06 0.08 0.10 0.07 0.01 0.00 0.00 0.00 0.00 0.00 0.00 0.01
0.00 0.00 0.00 0.00 0.00 0.03 0.07 0.13 0.17 0.16 0.11 0.05 0.01 0.00 0.03 0.02 0.01 0.00 0.00 0.00 0.00 0.00 0.00 0.00 0.00 0.00 0.00 0.01 0.03 0.03 0.01 0.03 0.04 0.03 0.02 0.01 0.00 0.00 0.00 0.00 0.00 0.00 0.00
0.00 0.00 0.00 0.00 0.00 0.01 0.09 0.28 0.27 0.21 0.15 0.05 0.04 0.03 0.02 0.04 0.03 0.01 0.00 0.00 0.02 0.03 0.01 0.00 0.00 0.00 0.00 0.00 0.02 0.04 0.03 0.01 0.00 0.03 0.02 0.01 0.01 0.00 0.00 0.00 0.00 0.00 0.00
0.00 0.00 0.00 0.00 0.00 0.01 0.07 0.22 0.30 0.43 0.26 0.21 0.26 0.18 0.08 0.06 0.07 0.03 0.02 0.02 0.03 0.03 0.02 0.01 0.00 0.00 0.00 0.00 0.00 0.02 0.02 0.07 0.05 0.02 0.02 0.00 0.00 0.00 0.00 0.00 0.00 0.00 0.00
0.00 0.00 0.00 0.00 0.00 0.01 0.01 0.32 0.62 0.64 0.33 0.27 0.38 0.35 0.41 0.15 0.05 0.04 0.04 0.04 0.05 0.04 0.03 0.02 0.00 0.00 0.00 0.00 0.00 0.00 0.01 0.05 0.10 0.06 0.02 0.00 0.00 0.00 0.00 0.00 0.00 0.00 0.00
0.00 0.00 0.00 0.01 0.01 0.01 0.01 0.11 0.61 0.79 0.84 0.72 0.35 0.42 0.43 0.21 0.02 0.02 0.01 0.04 0.04 0.04 0.04 0.02 0.01 0.00 0.00 0.00 0.00 0.00 0.00 0.01 0.04 0.09 0.10 0.02 0.00 0.00 0.00 0.00 0.00 0.00 0.00
0.00 0.00 0.00 0.00 0.00 0.00 0.01 0.03 0.10 0.39 0.58 0.66 0.78 0.66 0.50 0.29 0.11 0.04 0.02 0.01 0.04 0.04 0.03 0.02 0.01 0.00 0.00 0.00 0.00 0.00 0.00 0.00 0.00 0.01 0.05 0.06 0.01 0.00 0.00 0.00 0.00 0.00 0.00
0.00 0.00 0.00 0.00 0.01 0.01 0.00 0.00 0.04 0.29 0.46 0.45 0.56 0.50 0.63 0.55 0.33 0.11 0.03 0.02 0.03 0.03 0.04 0.04 0.02 0.00 0.00 0.00 0.00 0.00 0.00 0.00 0.00 0.00 0.00 0.01 0.01 0.01 0.00 0.00 0.00 0.00 0.00
0.00 0.00 0.00 0.01 0.01 0.01 0.01 0.00 0.00 0.08 0.44 0.56 0.59 0.44 0.30 0.38 0.33 0.19 0.05 0.03 0.01 0.00 0.01 0.03 0.03 0.01 0.00 0.00 0.00 0.00 0.00 0.00 0.00 0.00 0.00 0.00 0.00 0.01 0.01 0.00 0.00 0.00 0.00
0.00 0.01 0.01 0.01 0.01 0.01 0.01 0.00 0.01 0.01 0.16 0.41 0.44 0.49 0.41 0.24 0.19 0.16 0.10 0.08 0.06 0.02 0.03 0.03 0.03 0.02 0.00 0.00 0.00 0.00 0.00 0.00 0.00 0.00 0.00 0.00 0.00 0.00 0.01 0.01 0.00 0.00 0.00
0.01 0.01 0.01 0.01 0.01 0.01 0.00 0.00 0.01 0.01 0.02 0.11 0.37 0.41 0.53 0.42 0.29 0.20 0.15 0.12 0.09 0.08 0.04 0.01 0.01 0.01 0.00 0.00 0.00 0.00 0.00 0.00 0.00 0.00 0.00 0.00 0.00 0.00 0.00 0.00 0.00 0.00 0.00
0.01 0.01 0.01 0.03 0.03 0.02 0.02 0.01 0.01 0.01 0.01 0.04 0.21 0.40 0.47 0.52 0.51 0.34 0.26 0.20 0.14 0.13 0.05 0.01 0.00 0.00 0.00 0.00 0.00 0.00 0.00 0.00 0.00 0.00 0.00 0.00 0.00 0.00 0.00 0.00 0.00 0.01 0.00
0.04 0.05 0.07 0.05 0.03 0.01 0.01 0.01 0.01 0.01 0.02 0.03 0.05 0.13 0.36 0.53 0.55 0.52 0.50 0.31 0.24 0.18 0.09 0.03 0.00 0.00 0.00 0.00 0.00 0.00 0.00 0.00 0.01 0.01 0.00 0.00 0.00 0.00 0.00 0.00 0.00 0.00 0.00
0.13 0.05 0.06 0.10 0.13 0.03 0.00 0.00 0.00 0.01 0.02 0.02 0.05 0.14 0.17 0.33 0.49 0.61 0.57 0.50 0.39 0.33 0.23 0.07 0.04 0.01 0.01 0.00 0.00 0.00 0.00 0.00 0.00 0.01 0.00 0.01 0.02 0.01 0.00 0.00 0.00 0.00 0.00
0.09 0.05 0.07 0.12 0.18 0.08 0.01 0.01 0.01 0.01 0.01 0.00 0.00 0.03 0.13 0.23 0.32 0.35 0.35 0.51 0.51 0.43 0.43 0.28 0.15 0.05 0.04 0.01 0.00 0.00 0.00 0.00 0.00 0.02 0.03 0.02 0.02 0.02 0.02 0.03 0.03 0.04 0.03
0.15 0.15 0.10 0.09 0.09 0.07 0.03 0.03 0.02 0.02 0.02 0.01 0.01 0.01 0.06 0.28 0.35 0.34 0.43 0.44 0.43 0.43 0.38 0.37 0.33 0.18 0.14 0.10 0.05 0.04 0.03 0.02 0.00 0.01 0.01 0.01 0.01 0.00 0.01 0.01 0.03 0.04 0.05
0.31 0.40 0.40 0.34 0.24 0.16 0.09 0.07 0.05 0.06 0.07 0.05 0.05 0.03 0.02 0.05 0.21 0.45 0.51 0.56 0.56 0.53 0.45 0.50 0.56 0.35 0.20 0.17 0.11 0.08 0.06 0.04 0.02 0.00 0.00 0.01 0.01 0.01 0.01 0.01 0.01 0.02 0.03
0.52 0.61 0.62 0.42 0.27 0.30 0.35 0.25 0.31 0.22 0.17 0.17 0.12 0.08 0.09 0.12 0.16 0.15 0.28 0.48 0.65 0.70 0.74 0.66 0.65 0.71 0.43 0.21 0.18 0.14 0.08 0.04 0.02 0.01 0.01 0.02 0.02 0.01 0.01 0.02 0.03 0.03 0.03
0.14 0.25 0.43 0.32 0.37 0.26 0.29 0.44 0.55 0.66 0.58 0.38 0.40 0.26 0.22 0.17 0.16 0.21 0.23 0.29 0.28 0.37 0.48 0.60 0.64 0.64 0.69 0.60 0.38 0.27 0.25 0.19 0.15 0.13 0.04 0.02 0.03 0.05 0.06 0.06 0.06 0.02 0.02
0.05 0.09 0.18 0.16 0.14 0.05 0.04 0.13 0.25 0.43 0.61 0.65 0.57 0.59 0.42 0.41 0.33 0.25 0.25 0.24 0.27 0.32 0.34 0.39 0.45 0.50 0.53 0.51 0.50 0.50 0.40 0.32 0.34 0.34 0.27 0.19 0.21 0.16 0.14 0.13 0.11 0.04 0.04
0.00 0.02 0.06 0.06 0.03 0.01 0.00 0.01 0.04 0.07 0.09 0.13 0.14 0.14 0.10 0.09 0.12 0.11 0.14 0.19 0.23 0.31 0.39 0.44 0.43 0.45 0.47 0.50 0.54 0.56 0.51 0.38 0.28 0.26 0.25 0.20 0.26 0.33 0.30 0.23 0.23 0.16 0.10
0.00 0.00 0.00 0.01 0.01 0.00 0.00 0.00 0.00 0.01 0.02 0.04 0.04 0.04 0.04 0.04 0.03 0.02 0.01 0.02 0.03 0.05 0.06 0.07 0.10 0.13 0.15 0.16 0.20 0.28 0.37 0.42 0.44 0.33 0.23 0.17 0.15 0.15 0.18 0.19 0.18 0.17 0.13
0.00 0.00 0.00 0.00 0.00 0.00 0.00 0.00 0.00 0.00 0.00 0.00 0.01 0.01 0.01 0.02 0.02 0.02 0.02 0.02 0.02 0.02 0.02 0.01 0.01 0.00 0.00 0.01 0.01 0.01 0.02 0.02 0.04 0.05 0.05 0.04 0.07 0.08 0.10 0.11 0.09 0.07 0.05